Location: Borojevi?i
(45.0486°N, 16.2297°E)
Time: 05:36:15
(UTC+00:00)

Cosmos 1464 Rocket - Pass Details

Date: 08 August 2020
Orbit: 952 x 1002 km, 82.9° (Epoch: 19 September)

Event Time Altitude Azimuth Distance (km) Brightness Sun altitude
Exits shadow 23:15:39 83° 133° (SE) 990 3.8 -29.1°
Maximum altitude 23:15:49 84° 97° (E) 988 3.9 -29.1°
Drops below altitude 10° 23:22:04 10° 9° (N) 2,719 7.3 -29.0°
Sets 23:24:34 0° 9° (N) 3,663 8.2 -28.9°
